Simultaneous Nadir Overpasses (SNOs) Predictions

Prediction of SNOs between METOP-B and TERRA Satellite Orbit:

Table of predicted SNOs for the next 14.0 days since TLE Epoch: 12/21/2013
Index Date (METOP-B) Time (METOP-B) Lat,Lon (METOP-B) SZA (METOP-B ) Date (TERRA) Time (TERRA) Lat,Lon (TERRA) SZA (TERRA ) Distance(km) Time Diff (sec)
1 12/22/2013 07:53:55 -81.28, -72.23 72.73 12/22/2013 07:55:07 -81.27, -72.20 72.70 0.86 72
2 12/22/2013 08:44:34 81.28, 95.51 107.32 12/22/2013 08:44:33 81.28, 95.59 107.32 1.34 1
3 12/22/2013 09:34:54 -81.33, -88.69 71.70 12/22/2013 09:33:40 -81.62, -89.04 71.60 32.96 74
4 12/25/2013 03:28:18 -81.28, -5.67 72.80 12/25/2013 03:29:23 -81.28, -5.63 72.76 0.60 65
5 12/25/2013 04:18:57 81.28, 162.07 107.26 12/25/2013 04:18:49 81.28, 162.12 107.25 0.87 8
6 12
